FW0696 Weather Reports


time (UTC)temp
C
wind
direction
speed
KPH
gust
KPH
rain 1hr
cm
rain 24hr
cm
rain mn
cm
humidity
%
barometer
mb
20260506113052 10 169 0.0 1.6 0.00 0.00 0.00 74 1019.1
20260506111551 11 193 0.0 3.2 0.00 0.00 0.00 69 1019.2
20260506110050 12 200 0.0 8.0 0.00 0.00 0.00 66 1019.3
20260506104554 11 180 3.2 12.9 0.00 0.00 0.00 68 1019.5
20260506103052 11 193 1.6 8.0 0.00 0.00 0.00 70 1019.5
20260506101546 12 149 1.6 8.0 0.00 0.00 0.00 68 1019.5
20260506094543 11 165 0.0 3.2 0.00 0.00 0.00 72 1019.9
20260506093042 11 144 0.0 8.0 0.00 0.00 0.00 73 1019.9
20260506091542 11 229 0.0 11.3 0.00 0.00 0.00 72 1020.0
20260506090041 11 131 0.0 3.2 0.00 0.00 0.00 72 1020.1
20260506084542 11 126 0.0 8.0 0.00 0.00 0.00 71 1020.3
20260506083038 12 241 0.0 6.4 0.00 0.00 0.00 67 1020.6
20260506081536 12 269 0.0 11.3 0.00 0.00 0.00 66 1020.7
20260506073032 11 208 0.0 9.7 0.00 0.00 0.00 71 1020.9
20260506071532 10 296 1.6 6.4 0.00 0.00 0.00 77 1021.1
20260506061529 10 156 0.0 3.2 0.00 0.00 0.00 80 1021.1
20260506044530 10 192 0.0 3.2 0.00 0.00 0.00 78 1021.4
20260506043025 10 96 0.0 4.8 0.00 0.00 0.00 80 1021.4
20260506041522 9 171 0.0 3.2 0.00 0.00 0.00 84 1021.4
20260506040021 9 64 0.0 0.0 0.00 0.00 0.00 85 1021.5
20260506034520 9 6 0.0 0.0 0.00 0.00 0.00 84 1021.7
20260506033026 9 165 0.0 1.6 0.00 0.00 0.00 86 1021.7
20260506031528 8 153 0.0 1.6 0.00 0.00 0.00 87 1021.8
20260506030040 8 112 0.0 1.6 0.00 0.00 0.00 87 1021.7
20260506024524 8 148 3.2 8.0 0.00 0.00 0.00 88 1021.8
20260506023014 8 106 0.0 0.0 0.00 0.00 0.00 86 1021.8
20260506021512 9 162 0.0 4.8 0.00 0.00 0.00 84 1021.9
20260506020011 9 168 0.0 6.4 0.00 0.00 0.00 83 1022.1
20260506014511 10 150 1.6 4.8 0.00 0.00 0.00 80 1022.1
20260506013010 10 15 0.0 4.8 0.00 0.00 0.00 78 1022.5
20260506011509 9 162 0.0 4.8 0.00 0.00 0.00 82 1022.1
20260506010007 8 129 0.0 3.2 0.00 0.00 0.00 86 1022.2
20260506004519 8 228 1.6 4.8 0.00 0.00 0.00 84 1022.5
20260506003005 9 144 1.6 6.4 0.00 0.00 0.00 79 1022.6
20260506001504 10 177 0.0 3.2 0.00 0.00 0.00 76 1022.4
20260506000006 10 139 0.0 3.2 0.00 0.00 0.00 74 1022.4
20260505234503 10 160 1.6 4.8 0.00 0.00 0.00 71 1022.4
20260505233002 11 218 0.0 4.8 0.00 0.00 0.00 67 1022.4
20260505231600 11 89 0.0 3.2 0.00 0.00 0.00 66 1022.3
20260505230101 12 164 1.6 6.4 0.00 0.00 0.00 59 1022.6
20260505224558 12 203 0.0 9.7 0.00 0.00 0.00 58 1022.6
20260505223056 12 181 6.4 14.5 0.00 0.00 0.00 57 1022.5
20260505221601 12 77 1.6 11.3 0.00 0.00 0.00 57 1023.0
20260505220054 12 22 0.0 4.8 0.00 0.03 0.00 55 1023.1
20260505214550 11 51 1.6 9.7 0.00 0.03 0.00 56 1023.2
20260505213049 8 81 6.4 25.7 0.00 0.03 0.00 67 1023.3
20260505211547 6 134 0.0 1.6 0.00 0.03 0.00 73 1023.4
20260505210045 6 136 1.6 6.4 0.00 0.03 0.00 71 1023.1
20260505204544 5 137 0.0 6.4 0.00 0.03 0.00 73 1023.3
20260505203049 5 119 0.0 6.4 0.00 0.03 0.00 70 1023.2
20260505201546 5 101 0.0 3.2 0.00 0.03 0.00 70 1023.2
20260505200042 5 111 0.0 6.4 0.00 0.03 0.00 68 1023.1
20260505194548 5 173 0.0 8.0 0.00 0.03 0.00 68 1022.8
20260505193101 7 155 0.0 3.2 0.00 0.03 0.00 61 1022.5
20260505191542 8 165 0.0 4.8 0.00 0.03 0.00 54 1022.5
20260505190042 10 134 0.0 11.3 0.00 0.03 0.00 49 1022.3
20260505184539 10 102 1.6 17.7 0.00 0.03 0.00 48 1022.3
20260505183039 10 264 4.8 12.9 0.00 0.03 0.00 50 1022.1
20260505181537 8 142 0.0 8.0 0.00 0.03 0.00 56 1022.3
20260505180039 10 155 4.8 16.1 0.00 0.03 0.00 51 1022.4
20260505174532 8 135 6.4 14.5 0.00 0.03 0.00 57 1022.8
20260505173030 5 133 0.0 3.2 0.00 0.03 0.00 61 1023.0
20260505171529 7 295 0.0 4.8 0.00 0.03 0.00 54 1022.8
20260505170031 8 121 4.8 17.7 0.00 0.03 0.00 52 1022.8
20260505164526 6 193 8.0 17.7 0.00 0.03 0.00 58 1023.1
20260505163031 2 167 3.2 9.7 0.00 0.03 0.00 73 1023.1
20260505161524 3 168 1.6 6.4 0.00 0.03 0.00 71 1023.1
20260505153023 6 158 1.6 4.8 0.00 0.03 0.00 64 1023.8
20260505151519 7 113 1.6 4.8 0.00 0.03 0.00 58 1024.1
20260505124602 1 142 0.0 4.8 0.00 0.05 0.00 83 1025.5
20260505123107 1 141 0.0 1.6 0.00 0.05 0.00 86 1025.5
20260505121550 1 115 0.0 1.6 0.00 0.05 0.00 86 1025.5
20260505120055 1 110 0.0 0.0 0.00 0.05 0.05 86 1025.5
20260505114549 1 146 0.0 0.0 0.00 0.05 0.05 86 1025.7